Regional Weather Roundup
Issued by NWS

Home | Current Version | Previous Version | Text Only | Print | Product List | Glossary On
Versions: 1 2 3 4 5 6 7 8 9 10 11 12 13 14 15 16 17 18 19 20 21 22 23 24 25 26 27 28 29 30 31 32 33 34 35 36 37 38 39 40 41 42 43 44 45 46 47 48
000
ASUS45 KREV 031910
RWRNV
NEVADA REGIONAL WEATHER ROUNDUP
NATIONAL WEATHER SERVICE RENO NV
1100 AM PST TUE MAR 03 2015

NOTE: "FAIR" INDICATES FEW OR NO CLOUDS BELOW 12,000 FEET WITH NO
SIGNIFICANT WEATHER AND/OR OBSTRUCTIONS TO VISIBILITY.

NVZ001-003-004-032000-
WESTERN NEVADA

CITY           SKY/WX    TMP DP  RH WIND       PRES   REMARKS
RENO           PTSUNNY   40  21  46 NE15G22   30.06R
CARSON CITY    CLOUDY    37  27  65 SE8       30.05R
MINDEN         FAIR      37  23  56 N12       30.05
SLIDE MTN        N/A     23  21  93 CALM        N/A
FALLON         FAIR      42  12  29 NE14      30.06R
LOVELOCK       FAIR      41  13  31 NE13      30.06S
HAWTHORNE      CLOUDY    37  21  52 NW14      30.06R
$$

NVZ002-CAZ072-073-032000-
NORTHERN AND CENTRAL SIERRA

CITY           SKY/WX    TMP DP  RH WIND       PRES   REMARKS
S. LAKE TAHOE  CLOUDY    37  20  50 E5        29.99S
TRUCKEE        PTSUNNY   32  25  74 N6        30.02F
SQUAW VLY 8000   N/A     25  21  86 N2          N/A
SUSANVILLE     SUNNY     41  19  42 NE6       30.08
BLUE CANYON    FAIR      41  18  39 VRB5      30.01S
MAMMOTH LAKES  FAIR      37  19  48 N12       29.97R
$$

NVZ030-031-036-032000-
NORTHERN NEVADA

CITY           SKY/WX    TMP DP  RH WIND       PRES   REMARKS
ELKO           FAIR      32  16  51 NW17      29.97R
WINNEMUCCA     FAIR      35  14  42 N12G20    30.06S
WENDOVER       FAIR      37  16  41 N21G28    29.92R
$$

NVZ035-037-032000-
CENTRAL NEVADA

CITY           SKY/WX    TMP DP  RH WIND       PRES   REMARKS
ELY            CLOUDY    30  19  63 NW10      29.89S
EUREKA           N/A     28  17  63 NW20      29.97R
$$

NVZ013-014-032000-
SOUTH CENTRAL NEVADA

CITY           SKY/WX    TMP DP  RH WIND       PRES   REMARKS
TONOPAH        FAIR      40  24  53 NW25G31   29.94S
$$

NVZ017-020-022-032000-
SOUTHERN NEVADA

CITY           SKY/WX    TMP DP  RH WIND       PRES   REMARKS
LAS VEGAS      FAIR      55  35  47 E3        29.90S
N. LAS VEGAS   FAIR      52  36  54 SE6       29.93S
NELLIS AFB     FAIR      52  39  60 CALM      29.93F
HENDERSON      FAIR      54  36  50 SW3       29.94F
MERCURY        PTSUNNY   48  38  68 SW8       29.94S
$$


USA.gov is the U.S. government's official web portal to all federal, state and local government web resources and services.